owner,sensor,date,latitude,longitude,vertical_datum,mass_concentration_of_oxygen_in_sea_water,qcFlag 
DISL,ioos:station:DISL:CATA:1,2014-10-01T00:00:00Z,30.3085,-88.1395,2.391,7.91,1111122 
DISL,ioos:station:DISL:CATA:1,2014-10-01T00:30:00Z,30.3085,-88.1395,2.406,7.79,1111122 
DISL,ioos:station:DISL:CATA:1,2014-10-01T01:00:00Z,30.3085,-88.1395,2.424,7.7,1111122 
DISL,ioos:station:DISL:CATA:1,2014-10-01T01:30:00Z,30.3085,-88.1395,2.44,7.73,1111122 
DISL,ioos:station:DISL:CATA:1,2014-10-01T02:00:00Z,30.3085,-88.1395,2.458,7.76,1111122 
DISL,ioos:station:DISL:CATA:1,2014-10-01T02:30:00Z,30.3085,-88.1395,2.473,7.89,1111122 
DISL,ioos:station:DISL:CATA:1,2014-10-01T03:00:00Z,30.3085,-88.1395,2.497,8.01,1111122 
DISL,ioos:station:DISL:CATA:1,2014-10-01T03:30:00Z,30.3085,-88.1395,2.531,7.76,1111122 
DISL,ioos:station:DISL:CATA:1,2014-10-01T04:00:00Z,30.3085,-88.1395,2.549,7.65,1111122 
DISL,ioos:station:DISL:CATA:1,2014-10-01T04:30:00Z,30.3085,-88.1395,2.561,7.55,1111122 
DISL,ioos:station:DISL:CATA:1,2014-10-01T05:00:00Z,30.3085,-88.1395,2.584,7.34,1111122 
DISL,ioos:station:DISL:CATA:1,2014-10-01T05:30:00Z,30.3085,-88.1395,2.605,7.32,1111122 
DISL,ioos:station:DISL:CATA:1,2014-10-01T06:00:00Z,30.3085,-88.1395,2.618,7.13,1111122 
DISL,ioos:station:DISL:CATA:1,2014-10-01T06:30:00Z,30.3085,-88.1395,2.633,7.06,1111122 
DISL,ioos:station:DISL:CATA:1,2014-10-01T07:00:00Z,30.3085,-88.1395,2.642,6.91,1111122 
DISL,ioos:station:DISL:CATA:1,2014-10-01T07:30:00Z,30.3085,-88.1395,2.655,6.86,1111122 
DISL,ioos:station:DISL:CATA:1,2014-10-01T08:00:00Z,30.3085,-88.1395,2.653,6.88,1111122 
DISL,ioos:station:DISL:CATA:1,2014-10-01T08:30:00Z,30.3085,-88.1395,2.651,6.74,1111122 
DISL,ioos:station:DISL:CATA:1,2014-10-01T09:00:00Z,30.3085,-88.1395,2.648,6.49,1111122 
DISL,ioos:station:DISL:CATA:1,2014-10-01T09:30:00Z,30.3085,-88.1395,2.632,6.22,1111122 
DISL,ioos:station:DISL:CATA:1,2014-10-01T10:00:00Z,30.3085,-88.1395,2.621,6.08,1111122 
DISL,ioos:station:DISL:CATA:1,2014-10-01T10:30:00Z,30.3085,-88.1395,2.6,6.39,1111122 
DISL,ioos:station:DISL:CATA:1,2014-10-01T11:00:00Z,30.3085,-88.1395,2.578,6.51,1111122 
DISL,ioos:station:DISL:CATA:1,2014-10-01T11:30:00Z,30.3085,-88.1395,2.556,6.71,1111122 
DISL,ioos:station:DISL:CATA:1,2014-10-01T12:00:00Z,30.3085,-88.1395,2.532,6.57,1111122 
DISL,ioos:station:DISL:CATA:1,2014-10-01T12:30:00Z,30.3085,-88.1395,2.499,6.67,1111122 
DISL,ioos:station:DISL:CATA:1,2014-10-01T13:00:00Z,30.3085,-88.1395,2.458,6.93,1111122 
DISL,ioos:station:DISL:CATA:1,2014-10-01T13:30:00Z,30.3085,-88.1395,2.418,7.1,1111122 
DISL,ioos:station:DISL:CATA:1,2014-10-01T14:00:00Z,30.3085,-88.1395,2.378,7.16,1111122 
DISL,ioos:station:DISL:CATA:1,2014-10-01T14:30:00Z,30.3085,-88.1395,2.338,7.29,1111122 
DISL,ioos:station:DISL:CATA:1,2014-10-01T15:00:00Z,30.3085,-88.1395,2.301,7.38,1111122 
DISL,ioos:station:DISL:CATA:1,2014-10-01T15:30:00Z,30.3085,-88.1395,2.271,7.39,1111122 
DISL,ioos:station:DISL:CATA:1,2014-10-01T16:00:00Z,30.3085,-88.1395,2.247,7.46,1111122 
DISL,ioos:station:DISL:CATA:1,2014-10-01T16:30:00Z,30.3085,-88.1395,2.239,7.48,1111122 
DISL,ioos:station:DISL:CATA:1,2014-10-01T17:00:00Z,30.3085,-88.1395,2.234,7.49,1111122 
DISL,ioos:station:DISL:CATA:1,2014-10-01T17:30:00Z,30.3085,-88.1395,2.225,7.57,1111122 
DISL,ioos:station:DISL:CATA:1,2014-10-01T18:00:00Z,30.3085,-88.1395,2.227,7.62,1111122 
DISL,ioos:station:DISL:CATA:1,2014-10-01T18:30:00Z,30.3085,-88.1395,2.219,7.65,1111122 
DISL,ioos:station:DISL:CATA:1,2014-10-01T19:00:00Z,30.3085,-88.1395,2.218,7.73,1111122 
DISL,ioos:station:DISL:CATA:1,2014-10-01T19:30:00Z,30.3085,-88.1395,2.214,7.79,1111122 
DISL,ioos:station:DISL:CATA:1,2014-10-01T20:00:00Z,30.3085,-88.1395,2.214,7.81,1111122 
DISL,ioos:station:DISL:CATA:1,2014-10-01T20:30:00Z,30.3085,-88.1395,2.223,7.85,1111122 
DISL,ioos:station:DISL:CATA:1,2014-10-01T21:00:00Z,30.3085,-88.1395,2.232,7.89,1111122 
DISL,ioos:station:DISL:CATA:1,2014-10-01T21:30:00Z,30.3085,-88.1395,2.249,7.92,1111122 
DISL,ioos:station:DISL:CATA:1,2014-10-01T22:00:00Z,30.3085,-88.1395,2.266,7.9,1111122 
DISL,ioos:station:DISL:CATA:1,2014-10-01T22:30:00Z,30.3085,-88.1395,2.271,7.78,1111122 
DISL,ioos:station:DISL:CATA:1,2014-10-01T23:00:00Z,30.3085,-88.1395,2.29,7.55,1111122 
DISL,ioos:station:DISL:CATA:1,2014-10-01T23:30:00Z,30.3085,-88.1395,2.313,7.62,1111122 
DISL,ioos:station:DISL:CATA:1,2014-10-02T00:00:00Z,30.3085,-88.1395,2.338,7.43,1111122 
DISL,ioos:station:DISL:CATA:1,2014-10-02T00:30:00Z,30.3085,-88.1395,2.349,7.47,1111122 
DISL,ioos:station:DISL:CATA:1,2014-10-02T01:00:00Z,30.3085,-88.1395,2.384,7.39,1111122 
DISL,ioos:station:DISL:CATA:1,2014-10-02T01:30:00Z,30.3085,-88.1395,2.403,7.39,1111122 
DISL,ioos:station:DISL:CATA:1,2014-10-02T02:00:00Z,30.3085,-88.1395,2.415,7.32,1111122 
DISL,ioos:station:DISL:CATA:1,2014-10-02T02:30:00Z,30.3085,-88.1395,2.445,7.31,1111122 
DISL,ioos:station:DISL:CATA:1,2014-10-02T03:00:00Z,30.3085,-88.1395,2.477,7.26,1111122 
DISL,ioos:station:DISL:CATA:1,2014-10-02T03:30:00Z,30.3085,-88.1395,2.498,7.24,1111122 
DISL,ioos:station:DISL:CATA:1,2014-10-02T04:00:00Z,30.3085,-88.1395,2.516,7.26,1111122 
DISL,ioos:station:DISL:CATA:1,2014-10-02T04:30:00Z,30.3085,-88.1395,2.539,7.28,1111122 
DISL,ioos:station:DISL:CATA:1,2014-10-02T05:00:00Z,30.3085,-88.1395,2.559,7.28,1111122 
DISL,ioos:station:DISL:CATA:1,2014-10-02T05:30:00Z,30.3085,-88.1395,2.583,7.3,1111122 
DISL,ioos:station:DISL:CATA:1,2014-10-02T06:00:00Z,30.3085,-88.1395,2.602,7.33,1111122 
DISL,ioos:station:DISL:CATA:1,2014-10-02T06:30:00Z,30.3085,-88.1395,2.616,7.34,1111122 
DISL,ioos:station:DISL:CATA:1,2014-10-02T07:00:00Z,30.3085,-88.1395,2.638,7.24,1111122 
DISL,ioos:station:DISL:CATA:1,2014-10-02T07:30:00Z,30.3085,-88.1395,2.648,7.07,1111122 
DISL,ioos:station:DISL:CATA:1,2014-10-02T08:00:00Z,30.3085,-88.1395,2.665,6.96,1111122 
DISL,ioos:station:DISL:CATA:1,2014-10-02T08:30:00Z,30.3085,-88.1395,2.646,6.96,1111122 
DISL,ioos:station:DISL:CATA:1,2014-10-02T09:00:00Z,30.3085,-88.1395,2.672,6.92,1111122 
DISL,ioos:station:DISL:CATA:1,2014-10-02T09:30:00Z,30.3085,-88.1395,2.661,6.84,1111122 
DISL,ioos:station:DISL:CATA:1,2014-10-02T10:00:00Z,30.3085,-88.1395,2.652,6.77,1111122 
DISL,ioos:station:DISL:CATA:1,2014-10-02T10:30:00Z,30.3085,-88.1395,2.635,6.5,1111122 
DISL,ioos:station:DISL:CATA:1,2014-10-02T11:00:00Z,30.3085,-88.1395,2.63,5.99,1111122 
DISL,ioos:station:DISL:CATA:1,2014-10-02T11:30:00Z,30.3085,-88.1395,2.609,6.35,1111122 
DISL,ioos:station:DISL:CATA:1,2014-10-02T12:00:00Z,30.3085,-88.1395,2.59,6.51,1111122 
DISL,ioos:station:DISL:CATA:1,2014-10-02T12:30:00Z,30.3085,-88.1395,2.571,6.54,1111122 
DISL,ioos:station:DISL:CATA:1,2014-10-02T13:00:00Z,30.3085,-88.1395,2.552,6.41,1111122 
DISL,ioos:station:DISL:CATA:1,2014-10-02T13:30:00Z,30.3085,-88.1395,2.523,6.35,1111122 
DISL,ioos:station:DISL:CATA:1,2014-10-02T14:00:00Z,30.3085,-88.1395,2.495,6.54,1111122 
DISL,ioos:station:DISL:CATA:1,2014-10-02T14:30:00Z,30.3085,-88.1395,2.464,6.67,1111122 
DISL,ioos:station:DISL:CATA:1,2014-10-02T15:00:00Z,30.3085,-88.1395,2.417,6.57,1111122 
DISL,ioos:station:DISL:CATA:1,2014-10-02T15:30:00Z,30.3085,-88.1395,2.379,6.6,1111122 
DISL,ioos:station:DISL:CATA:1,2014-10-02T16:00:00Z,30.3085,-88.1395,2.345,6.67,1111122 
DISL,ioos:station:DISL:CATA:1,2014-10-02T16:30:00Z,30.3085,-88.1395,2.314,6.8,1111122 
DISL,ioos:station:DISL:CATA:1,2014-10-02T17:00:00Z,30.3085,-88.1395,2.283,6.9,1111122 
DISL,ioos:station:DISL:CATA:1,2014-10-02T17:30:00Z,30.3085,-88.1395,2.268,6.99,1111122 
DISL,ioos:station:DISL:CATA:1,2014-10-02T18:00:00Z,30.3085,-88.1395,2.25,7.04,1111122 
DISL,ioos:station:DISL:CATA:1,2014-10-02T18:30:00Z,30.3085,-88.1395,2.228,7.11,1111122 
DISL,ioos:station:DISL:CATA:1,2014-10-02T19:00:00Z,30.3085,-88.1395,2.215,7.16,1111122 
DISL,ioos:station:DISL:CATA:1,2014-10-02T19:30:00Z,30.3085,-88.1395,2.21,7.35,1111122 
DISL,ioos:station:DISL:CATA:1,2014-10-02T20:00:00Z,30.3085,-88.1395,2.19,7.44,1111122 
DISL,ioos:station:DISL:CATA:1,2014-10-02T20:30:00Z,30.3085,-88.1395,2.193,7.54,1111122 
DISL,ioos:station:DISL:CATA:1,2014-10-02T21:00:00Z,30.3085,-88.1395,2.193,7.56,1111122 
DISL,ioos:station:DISL:CATA:1,2014-10-02T21:30:00Z,30.3085,-88.1395,2.197,7.55,1111122 
DISL,ioos:station:DISL:CATA:1,2014-10-02T22:00:00Z,30.3085,-88.1395,2.215,7.59,1111122 
DISL,ioos:station:DISL:CATA:1,2014-10-02T22:30:00Z,30.3085,-88.1395,2.23,7.59,1111122 
DISL,ioos:station:DISL:CATA:1,2014-10-02T23:00:00Z,30.3085,-88.1395,2.254,7.49,1111122 
DISL,ioos:station:DISL:CATA:1,2014-10-02T23:30:00Z,30.3085,-88.1395,2.273,7.29,1111122 
DISL,ioos:station:DISL:CATA:1,2014-10-03T00:00:00Z,30.3085,-88.1395,2.284,6.88,1111122 
DISL,ioos:station:DISL:CATA:1,2014-10-03T00:30:00Z,30.3085,-88.1395,2.307,6.94,1111122 
DISL,ioos:station:DISL:CATA:1,2014-10-03T01:00:00Z,30.3085,-88.1395,2.318,7.12,1111122 
DISL,ioos:station:DISL:CATA:1,2014-10-03T01:30:00Z,30.3085,-88.1395,2.352,7.05,1111122 
DISL,ioos:station:DISL:CATA:1,2014-10-03T02:00:00Z,30.3085,-88.1395,2.379,7.02,1111122 
DISL,ioos:station:DISL:CATA:1,2014-10-03T02:30:00Z,30.3085,-88.1395,2.405,6.95,1111122 
DISL,ioos:station:DISL:CATA:1,2014-10-03T03:00:00Z,30.3085,-88.1395,2.424,6.89,1111122 
DISL,ioos:station:DISL:CATA:1,2014-10-03T03:30:00Z,30.3085,-88.1395,2.445,6.87,1111122 
DISL,ioos:station:DISL:CATA:1,2014-10-03T04:00:00Z,30.3085,-88.1395,2.462,6.96,1111122 
DISL,ioos:station:DISL:CATA:1,2014-10-03T04:30:00Z,30.3085,-88.1395,2.482,7.01,1111122 
DISL,ioos:station:DISL:CATA:1,2014-10-03T05:00:00Z,30.3085,-88.1395,2.498,6.97,1111122 
DISL,ioos:station:DISL:CATA:1,2014-10-03T05:30:00Z,30.3085,-88.1395,2.534,6.96,1111122 
DISL,ioos:station:DISL:CATA:1,2014-10-03T06:00:00Z,30.3085,-88.1395,2.561,6.93,1111122 
DISL,ioos:station:DISL:CATA:1,2014-10-03T06:30:00Z,30.3085,-88.1395,2.582,6.94,1111122 
DISL,ioos:station:DISL:CATA:1,2014-10-03T07:00:00Z,30.3085,-88.1395,2.6,6.86,1111122 
DISL,ioos:station:DISL:CATA:1,2014-10-03T07:30:00Z,30.3085,-88.1395,2.622,6.82,1111122 
DISL,ioos:station:DISL:CATA:1,2014-10-03T08:00:00Z,30.3085,-88.1395,2.635,6.82,1111122 
DISL,ioos:station:DISL:CATA:1,2014-10-03T08:30:00Z,30.3085,-88.1395,2.641,6.85,1111122 
DISL,ioos:station:DISL:CATA:1,2014-10-03T09:00:00Z,30.3085,-88.1395,2.66,6.82,1111122 
DISL,ioos:station:DISL:CATA:1,2014-10-03T09:30:00Z,30.3085,-88.1395,2.669,6.67,1111122 
DISL,ioos:station:DISL:CATA:1,2014-10-03T10:00:00Z,30.3085,-88.1395,2.673,6.61,1111122 
DISL,ioos:station:DISL:CATA:1,2014-10-03T10:30:00Z,30.3085,-88.1395,2.672,6.57,1111122 
DISL,ioos:station:DISL:CATA:1,2014-10-03T11:00:00Z,30.3085,-88.1395,2.664,6.45,1111122 
DISL,ioos:station:DISL:CATA:1,2014-10-03T11:30:00Z,30.3085,-88.1395,2.671,6.37,1111122 
DISL,ioos:station:DISL:CATA:1,2014-10-03T12:00:00Z,30.3085,-88.1395,2.656,6.26,1111122 
DISL,ioos:station:DISL:CATA:1,2014-10-03T12:30:00Z,30.3085,-88.1395,2.649,6.31,1111122 
DISL,ioos:station:DISL:CATA:1,2014-10-03T13:00:00Z,30.3085,-88.1395,2.659,6.24,1111122 
DISL,ioos:station:DISL:CATA:1,2014-10-03T13:30:00Z,30.3085,-88.1395,2.672,6.27,1111122 
DISL,ioos:station:DISL:CATA:1,2014-10-03T14:00:00Z,30.3085,-88.1395,2.601,6.24,1111122 
DISL,ioos:station:DISL:CATA:1,2014-10-03T14:30:00Z,30.3085,-88.1395,2.555,6.01,1111122 
DISL,ioos:station:DISL:CATA:1,2014-10-03T15:00:00Z,30.3085,-88.1395,2.523,6.05,1111122 
DISL,ioos:station:DISL:CATA:1,2014-10-03T15:30:00Z,30.3085,-88.1395,2.537,6.29,1111122 
DISL,ioos:station:DISL:CATA:1,2014-10-03T16:00:00Z,30.3085,-88.1395,2.451,6.44,1111122 
DISL,ioos:station:DISL:CATA:1,2014-10-03T16:30:00Z,30.3085,-88.1395,2.37,6.48,1111122 
DISL,ioos:station:DISL:CATA:1,2014-10-03T17:00:00Z,30.3085,-88.1395,2.328,6.57,1111122 
DISL,ioos:station:DISL:CATA:1,2014-10-03T17:30:00Z,30.3085,-88.1395,2.302,6.65,1111122 
DISL,ioos:station:DISL:CATA:1,2014-10-03T18:00:00Z,30.3085,-88.1395,2.287,6.54,1111122 
DISL,ioos:station:DISL:CATA:1,2014-10-03T18:30:00Z,30.3085,-88.1395,2.278,6.57,1111122 
DISL,ioos:station:DISL:CATA:1,2014-10-03T19:00:00Z,30.3085,-88.1395,2.254,6.7,1111122 
DISL,ioos:station:DISL:CATA:1,2014-10-03T19:30:00Z,30.3085,-88.1395,2.284,6.76,1111122 
DISL,ioos:station:DISL:CATA:1,2014-10-03T20:00:00Z,30.3085,-88.1395,2.302,6.87,1111122 
DISL,ioos:station:DISL:CATA:1,2014-10-03T20:30:00Z,30.3085,-88.1395,2.289,6.8,1111122 
DISL,ioos:station:DISL:CATA:1,2014-10-03T21:00:00Z,30.3085,-88.1395,2.256,6.64,1111122 
DISL,ioos:station:DISL:CATA:1,2014-10-03T21:30:00Z,30.3085,-88.1395,2.205,6.82,1111122 
DISL,ioos:station:DISL:CATA:1,2014-10-03T22:00:00Z,30.3085,-88.1395,2.149,6.91,1111122 
DISL,ioos:station:DISL:CATA:1,2014-10-03T22:30:00Z,30.3085,-88.1395,2.102,6.97,1111122 
DISL,ioos:station:DISL:CATA:1,2014-10-03T23:00:00Z,30.3085,-88.1395,2.09,7.01,1111122 
DISL,ioos:station:DISL:CATA:1,2014-10-03T23:30:00Z,30.3085,-88.1395,2.131,7.05,1111122 
DISL,ioos:station:DISL:CATA:1,2014-10-04T00:00:00Z,30.3085,-88.1395,2.157,7.05,1111122 
DISL,ioos:station:DISL:CATA:1,2014-10-04T00:30:00Z,30.3085,-88.1395,2.201,7.02,1111122 
DISL,ioos:station:DISL:CATA:1,2014-10-04T01:00:00Z,30.3085,-88.1395,2.24,6.54,1111122 
DISL,ioos:station:DISL:CATA:1,2014-10-04T01:30:00Z,30.3085,-88.1395,2.232,6.75,1111122 
DISL,ioos:station:DISL:CATA:1,2014-10-04T02:00:00Z,30.3085,-88.1395,2.248,6.72,1111122 
DISL,ioos:station:DISL:CATA:1,2014-10-04T02:30:00Z,30.3085,-88.1395,2.264,6.73,1111122 
DISL,ioos:station:DISL:CATA:1,2014-10-04T03:00:00Z,30.3085,-88.1395,2.286,6.78,1111122 
DISL,ioos:station:DISL:CATA:1,2014-10-04T03:30:00Z,30.3085,-88.1395,2.296,6.72,1111122 
DISL,ioos:station:DISL:CATA:1,2014-10-04T04:00:00Z,30.3085,-88.1395,2.304,6.63,1111122 
DISL,ioos:station:DISL:CATA:1,2014-10-04T04:30:00Z,30.3085,-88.1395,2.303,6.59,1111122 
DISL,ioos:station:DISL:CATA:1,2014-10-04T05:00:00Z,30.3085,-88.1395,2.318,6.5,1111122 
DISL,ioos:station:DISL:CATA:1,2014-10-04T05:30:00Z,30.3085,-88.1395,2.341,6.39,1111122 
DISL,ioos:station:DISL:CATA:1,2014-10-04T06:00:00Z,30.3085,-88.1395,2.33,6.25,1111122 
DISL,ioos:station:DISL:CATA:1,2014-10-04T06:30:00Z,30.3085,-88.1395,2.312,5.95,1111122 
DISL,ioos:station:DISL:CATA:1,2014-10-04T07:00:00Z,30.3085,-88.1395,2.309,6.18,1111122 
DISL,ioos:station:DISL:CATA:1,2014-10-04T07:30:00Z,30.3085,-88.1395,2.328,6.19,1111122 
DISL,ioos:station:DISL:CATA:1,2014-10-04T08:00:00Z,30.3085,-88.1395,2.334,6.26,1111122 
DISL,ioos:station:DISL:CATA:1,2014-10-04T08:30:00Z,30.3085,-88.1395,2.362,6.02,1111122 
DISL,ioos:station:DISL:CATA:1,2014-10-04T09:00:00Z,30.3085,-88.1395,2.375,5.99,1111122 
DISL,ioos:station:DISL:CATA:1,2014-10-04T09:30:00Z,30.3085,-88.1395,2.379,6.01,1111122 
DISL,ioos:station:DISL:CATA:1,2014-10-04T10:00:00Z,30.3085,-88.1395,2.395,6.13,1111122 
DISL,ioos:station:DISL:CATA:1,2014-10-04T10:30:00Z,30.3085,-88.1395,2.398,6.13,1111122 
DISL,ioos:station:DISL:CATA:1,2014-10-04T11:00:00Z,30.3085,-88.1395,2.414,6.24,1111122 
DISL,ioos:station:DISL:CATA:1,2014-10-04T11:30:00Z,30.3085,-88.1395,2.417,6.19,1111122 
DISL,ioos:station:DISL:CATA:1,2014-10-04T12:00:00Z,30.3085,-88.1395,2.406,6.09,1111122 
DISL,ioos:station:DISL:CATA:1,2014-10-04T12:30:00Z,30.3085,-88.1395,2.4,5.61,1111122 
DISL,ioos:station:DISL:CATA:1,2014-10-04T13:00:00Z,30.3085,-88.1395,2.367,5.43,1111122 
DISL,ioos:station:DISL:CATA:1,2014-10-04T13:30:00Z,30.3085,-88.1395,2.337,5.81,1111122 
DISL,ioos:station:DISL:CATA:1,2014-10-04T14:00:00Z,30.3085,-88.1395,2.305,6.71,1111122 
DISL,ioos:station:DISL:CATA:1,2014-10-04T14:30:00Z,30.3085,-88.1395,2.294,6.62,1111122 
DISL,ioos:station:DISL:CATA:1,2014-10-04T15:00:00Z,30.3085,-88.1395,2.278,6.62,1111122 
DISL,ioos:station:DISL:CATA:1,2014-10-04T15:30:00Z,30.3085,-88.1395,2.247,6.72,1111122 
DISL,ioos:station:DISL:CATA:1,2014-10-04T16:00:00Z,30.3085,-88.1395,2.241,6.87,1111122 
DISL,ioos:station:DISL:CATA:1,2014-10-04T16:30:00Z,30.3085,-88.1395,2.236,6.86,1111122 
DISL,ioos:station:DISL:CATA:1,2014-10-04T17:00:00Z,30.3085,-88.1395,2.224,6.97,1111122 
DISL,ioos:station:DISL:CATA:1,2014-10-04T17:30:00Z,30.3085,-88.1395,2.219,6.99,1111122 
DISL,ioos:station:DISL:CATA:1,2014-10-04T18:00:00Z,30.3085,-88.1395,2.195,6.9,1111122 
DISL,ioos:station:DISL:CATA:1,2014-10-04T18:30:00Z,30.3085,-88.1395,2.148,6.61,1111122 
DISL,ioos:station:DISL:CATA:1,2014-10-04T19:00:00Z,30.3085,-88.1395,2.147,6.38,1111122 
DISL,ioos:station:DISL:CATA:1,2014-10-04T19:30:00Z,30.3085,-88.1395,2.123,7.07,1111122 
DISL,ioos:station:DISL:CATA:1,2014-10-04T20:00:00Z,30.3085,-88.1395,2.103,6.88,1111122 
DISL,ioos:station:DISL:CATA:1,2014-10-04T20:30:00Z,30.3085,-88.1395,2.08,7.26,1111122 
DISL,ioos:station:DISL:CATA:1,2014-10-04T21:00:00Z,30.3085,-88.1395,2.067,7.2,1111122 
DISL,ioos:station:DISL:CATA:1,2014-10-04T21:30:00Z,30.3085,-88.1395,2.065,7.11,1111122 
DISL,ioos:station:DISL:CATA:1,2014-10-04T22:00:00Z,30.3085,-88.1395,2.055,6.71,1111122 
DISL,ioos:station:DISL:CATA:1,2014-10-04T22:30:00Z,30.3085,-88.1395,2.052,7.36,1111122 
DISL,ioos:station:DISL:CATA:1,2014-10-04T23:00:00Z,30.3085,-88.1395,2.031,7.41,1111122 
DISL,ioos:station:DISL:CATA:1,2014-10-04T23:30:00Z,30.3085,-88.1395,2.029,7.34,1111122 
DISL,ioos:station:DISL:CATA:1,2014-10-05T00:00:00Z,30.3085,-88.1395,2.017,7.29,1111122 
DISL,ioos:station:DISL:CATA:1,2014-10-05T00:30:00Z,30.3085,-88.1395,2.011,7.12,1111122 
DISL,ioos:station:DISL:CATA:1,2014-10-05T01:00:00Z,30.3085,-88.1395,2.027,7.06,1111122 
DISL,ioos:station:DISL:CATA:1,2014-10-05T01:30:00Z,30.3085,-88.1395,2.041,7.25,1111122 
DISL,ioos:station:DISL:CATA:1,2014-10-05T02:00:00Z,30.3085,-88.1395,2.046,7.17,1111122 
DISL,ioos:station:DISL:CATA:1,2014-10-05T02:30:00Z,30.3085,-88.1395,2.074,7.17,1111122 
DISL,ioos:station:DISL:CATA:1,2014-10-05T03:00:00Z,30.3085,-88.1395,2.109,7.22,1111122 
DISL,ioos:station:DISL:CATA:1,2014-10-05T03:30:00Z,30.3085,-88.1395,2.124,7.47,1111122 
DISL,ioos:station:DISL:CATA:1,2014-10-05T04:00:00Z,30.3085,-88.1395,2.153,7.1,1111122 
DISL,ioos:station:DISL:CATA:1,2014-10-05T04:30:00Z,30.3085,-88.1395,2.162,7.2,1111122 
DISL,ioos:station:DISL:CATA:1,2014-10-05T05:00:00Z,30.3085,-88.1395,2.171,7.17,1111122 
DISL,ioos:station:DISL:CATA:1,2014-10-05T05:30:00Z,30.3085,-88.1395,2.163,7.15,1111122 
DISL,ioos:station:DISL:CATA:1,2014-10-05T06:00:00Z,30.3085,-88.1395,2.174,7.02,1111122 
DISL,ioos:station:DISL:CATA:1,2014-10-05T06:30:00Z,30.3085,-88.1395,2.178,6.88,1111122 
DISL,ioos:station:DISL:CATA:1,2014-10-05T07:00:00Z,30.3085,-88.1395,2.179,6.73,1111122 
DISL,ioos:station:DISL:CATA:1,2014-10-05T07:30:00Z,30.3085,-88.1395,2.184,6.61,1111122 
DISL,ioos:station:DISL:CATA:1,2014-10-05T08:00:00Z,30.3085,-88.1395,2.195,6.43,1111122 
DISL,ioos:station:DISL:CATA:1,2014-10-05T08:30:00Z,30.3085,-88.1395,2.211,5.92,1111122 
DISL,ioos:station:DISL:CATA:1,2014-10-05T09:00:00Z,30.3085,-88.1395,2.234,5.92,1111122 
DISL,ioos:station:DISL:CATA:1,2014-10-05T09:30:00Z,30.3085,-88.1395,2.255,6.06,1111122 
DISL,ioos:station:DISL:CATA:1,2014-10-05T10:00:00Z,30.3085,-88.1395,2.269,6.25,1111122 
DISL,ioos:station:DISL:CATA:1,2014-10-05T10:30:00Z,30.3085,-88.1395,2.273,6.33,1111122 
DISL,ioos:station:DISL:CATA:1,2014-10-05T11:00:00Z,30.3085,-88.1395,2.276,6.31,1111122 
DISL,ioos:station:DISL:CATA:1,2014-10-05T11:30:00Z,30.3085,-88.1395,2.281,6.25,1111122 
DISL,ioos:station:DISL:CATA:1,2014-10-05T12:00:00Z,30.3085,-88.1395,2.286,6.33,1111122 
DISL,ioos:station:DISL:CATA:1,2014-10-05T12:30:00Z,30.3085,-88.1395,2.279,6.3,1111122 
DISL,ioos:station:DISL:CATA:1,2014-10-05T13:00:00Z,30.3085,-88.1395,2.287,6.28,1111122 
DISL,ioos:station:DISL:CATA:1,2014-10-05T13:30:00Z,30.3085,-88.1395,2.294,6.19,1111122 
DISL,ioos:station:DISL:CATA:1,2014-10-05T14:00:00Z,30.3085,-88.1395,2.307,6.13,1111122 
DISL,ioos:station:DISL:CATA:1,2014-10-05T14:30:00Z,30.3085,-88.1395,2.321,6.18,1111122 
DISL,ioos:station:DISL:CATA:1,2014-10-05T15:00:00Z,30.3085,-88.1395,2.324,6.19,1111122 
DISL,ioos:station:DISL:CATA:1,2014-10-05T15:30:00Z,30.3085,-88.1395,2.329,6.51,1111122 
DISL,ioos:station:DISL:CATA:1,2014-10-05T16:00:00Z,30.3085,-88.1395,2.316,6.68,1111122 
DISL,ioos:station:DISL:CATA:1,2014-10-05T16:30:00Z,30.3085,-88.1395,2.296,6.94,1111122 
DISL,ioos:station:DISL:CATA:1,2014-10-05T17:00:00Z,30.3085,-88.1395,2.276,6.98,1111122 
DISL,ioos:station:DISL:CATA:1,2014-10-05T17:30:00Z,30.3085,-88.1395,2.254,6.9,1111122 
DISL,ioos:station:DISL:CATA:1,2014-10-05T18:00:00Z,30.3085,-88.1395,2.227,6.67,1111122 
DISL,ioos:station:DISL:CATA:1,2014-10-05T18:30:00Z,30.3085,-88.1395,2.188,7.22,1111122 
DISL,ioos:station:DISL:CATA:1,2014-10-05T19:00:00Z,30.3085,-88.1395,2.155,8.09,1111122 
DISL,ioos:station:DISL:CATA:1,2014-10-05T19:30:00Z,30.3085,-88.1395,2.137,8.07,1111122 
DISL,ioos:station:DISL:CATA:1,2014-10-05T20:00:00Z,30.3085,-88.1395,2.116,8.1,1111122 
DISL,ioos:station:DISL:CATA:1,2014-10-05T20:30:00Z,30.3085,-88.1395,2.101,8.26,1111122 
DISL,ioos:station:DISL:CATA:1,2014-10-05T21:00:00Z,30.3085,-88.1395,2.09,8.29,1111122 
DISL,ioos:station:DISL:CATA:1,2014-10-05T21:30:00Z,30.3085,-88.1395,2.089,8.29,1111122 
DISL,ioos:station:DISL:CATA:1,2014-10-05T22:00:00Z,30.3085,-88.1395,2.082,8.26,1111122 
DISL,ioos:station:DISL:CATA:1,2014-10-05T22:30:00Z,30.3085,-88.1395,2.084,8.27,1111122 
DISL,ioos:station:DISL:CATA:1,2014-10-05T23:00:00Z,30.3085,-88.1395,2.09,8.25,1111122 
DISL,ioos:station:DISL:CATA:1,2014-10-05T23:30:00Z,30.3085,-88.1395,2.082,8.24,1111122 
DISL,ioos:station:DISL:CATA:1,2014-10-06T00:00:00Z,30.3085,-88.1395,2.088,7.97,1111122 
DISL,ioos:station:DISL:CATA:1,2014-10-06T00:30:00Z,30.3085,-88.1395,2.094,7.67,1111122 
DISL,ioos:station:DISL:CATA:1,2014-10-06T01:00:00Z,30.3085,-88.1395,2.105,7.01,1111122 
DISL,ioos:station:DISL:CATA:1,2014-10-06T01:30:00Z,30.3085,-88.1395,2.117,7.34,1111122 
DISL,ioos:station:DISL:CATA:1,2014-10-06T02:00:00Z,30.3085,-88.1395,2.123,7.38,1111122 
DISL,ioos:station:DISL:CATA:1,2014-10-06T02:30:00Z,30.3085,-88.1395,2.141,7.5,1111122 
DISL,ioos:station:DISL:CATA:1,2014-10-06T03:00:00Z,30.3085,-88.1395,2.154,7.62,1111122 
DISL,ioos:station:DISL:CATA:1,2014-10-06T03:30:00Z,30.3085,-88.1395,2.172,7.56,1111122 
DISL,ioos:station:DISL:CATA:1,2014-10-06T04:00:00Z,30.3085,-88.1395,2.186,7.58,1111122 
DISL,ioos:station:DISL:CATA:1,2014-10-06T04:30:00Z,30.3085,-88.1395,2.196,7.58,1111122 
DISL,ioos:station:DISL:CATA:1,2014-10-06T05:00:00Z,30.3085,-88.1395,2.202,7.54,1111122 
DISL,ioos:station:DISL:CATA:1,2014-10-06T05:30:00Z,30.3085,-88.1395,2.21,7.54,1111122 
DISL,ioos:station:DISL:CATA:1,2014-10-06T06:00:00Z,30.3085,-88.1395,2.204,7.49,1111122 
DISL,ioos:station:DISL:CATA:1,2014-10-06T06:30:00Z,30.3085,-88.1395,2.189,7.49,1111122 
DISL,ioos:station:DISL:CATA:1,2014-10-06T07:00:00Z,30.3085,-88.1395,2.183,7.43,1111122 
DISL,ioos:station:DISL:CATA:1,2014-10-06T07:30:00Z,30.3085,-88.1395,2.179,7.27,1111122 
DISL,ioos:station:DISL:CATA:1,2014-10-06T08:00:00Z,30.3085,-88.1395,2.169,7.5,1111122 
DISL,ioos:station:DISL:CATA:1,2014-10-06T08:30:00Z,30.3085,-88.1395,2.187,7.21,1111122 
DISL,ioos:station:DISL:CATA:1,2014-10-06T09:00:00Z,30.3085,-88.1395,2.195,7.05,1111122 
DISL,ioos:station:DISL:CATA:1,2014-10-06T09:30:00Z,30.3085,-88.1395,2.201,6.93,1111122 
DISL,ioos:station:DISL:CATA:1,2014-10-06T10:00:00Z,30.3085,-88.1395,2.225,6.48,1111122 
DISL,ioos:station:DISL:CATA:1,2014-10-06T10:30:00Z,30.3085,-88.1395,2.248,6.29,1111122 
DISL,ioos:station:DISL:CATA:1,2014-10-06T11:00:00Z,30.3085,-88.1395,2.267,6.66,1111122 
DISL,ioos:station:DISL:CATA:1,2014-10-06T11:30:00Z,30.3085,-88.1395,2.269,6.75,1111122 
DISL,ioos:station:DISL:CATA:1,2014-10-06T12:00:00Z,30.3085,-88.1395,2.271,6.93,1111122 
DISL,ioos:station:DISL:CATA:1,2014-10-06T12:30:00Z,30.3085,-88.1395,2.282,6.98,1111122 
DISL,ioos:station:DISL:CATA:1,2014-10-06T13:00:00Z,30.3085,-88.1395,2.303,7.15,1111122 
DISL,ioos:station:DISL:CATA:1,2014-10-06T13:30:00Z,30.3085,-88.1395,2.327,7.36,1111122 
DISL,ioos:station:DISL:CATA:1,2014-10-06T14:00:00Z,30.3085,-88.1395,2.339,7.48,1111122 
DISL,ioos:station:DISL:CATA:1,2014-10-06T14:30:00Z,30.3085,-88.1395,2.353,7.48,1111122 
DISL,ioos:station:DISL:CATA:1,2014-10-06T15:00:00Z,30.3085,-88.1395,2.369,7.17,1111122 
DISL,ioos:station:DISL:CATA:1,2014-10-06T15:30:00Z,30.3085,-88.1395,2.382,7.12,1111122 